Wind_Speed
1 3 5 5 6 6 6 5 4 4 4 5 5 4 2 2 3 3 4 5 5 5 6 7 8 9 7 4 3 3 3 3 2 3 4 2 4 7 9 10 10 10 9 9 8 8 7 6 5 5 5 5 5 5 5 6 7 7 6 6 6 6 7 6 5 5 5 5 5 6 6 8 9 10 10 11 11 12 13 14 15 17 18 19 19 20
1 3 6 7 6 7 7 6 5 5 6 7 6 4 3 2 3 4 4 5 5 6 7 7 8 8 6 4 3 2 1 1 1 1 2 2 6 8 10 11 11 10 9 9 8 7 7 6 5 5 5 5 6 6 7 8 8 8 7 7 7 8 8 7 6 5 6 6 6 6 7 8 9 10 11 11 12 14 15 16 17 18 19 20 20 21
3 2 5 7 6 7 7 6 6 6 6 7 7 6 5 3 3 5 5 4 5 6 7 7 6 5 4 4 4 3 0 2 2 1 2 4 7 9 10 11 10 10 9 8 8 7 6 5 6 6 6 7 7 7 8 8 8 8 8 7 7 7 7 6 6 5 5 6 6 7 8 9 10 11 11 13 14 15 16 18 19 19 20 20 20 20
4 2 3 6 6 5 5 7 7 7 8 8 8 7 6 6 6 7 5 4 4 5 6 6 7 7 5 5 5 3 1 2 3 2 3 6 8 9 10 11 10 10 9 8 8 8 6 6 6 7 8 8 8 8 8 8 7 7 7 7 6 6 6 5 5 5 6 6 7 8 9 10 11 11 13 14 15 16 17 18 19 19 20 20 20 20
3 2 2 5 4 3 5 7 8 8 10 10 9 8 8 8 9 8 5 4 3 4 6 6 7 8 7 6 6 4 2 1 3 4 4 6 8 9 10 10 9 9 9 9 9 8 7 6 7 9 9 9 9 8 7 7 6 6 6 6 5 5 5 5 6 6 7 7 8 9 10 11 12 13 14 15 16 17 18 18 19 19 19 19 19 20
3 2 2 4 2 2 4 8 9 8 10 10 10 9 9 8 8 7 5 4 3 5 7 6 6 7 7 8 7 6 4 0 3 4 5 6 7 8 9 9 8 7 8 8 9 9 8 8 8 9 9 9 9 8 7 6 5 5 5 5 5 5 5 6 7 7 8 9 10 11 12 13 14 14 15 16 16 17 17 17 18 18 18 19 19 20
6 4 4 4 1 2 4 6 8 9 9 10 10 10 9 7 7 8 7 5 4 5 6 6 6 6 8 9 9 8 5 2 3 5 6 7 7 8 9 8 7 7 7 7 9 10 10 9 9 9 9 8 8 7 6 5 4 4 4 5 5 5 5 6 7 8 9 10 11 12 13 14 15 15 16 16 16 16 16 16 17 17 18 19 20 21
6 4 4 3 2 3 5 7 7 8 9 11 12 11 9 8 8 9 8 6 6 5 6 7 6 5 9 11 10 9 6 3 4 6 7 8 8 8 9 9 8 7 8 8 9 10 10 10 9 8 7 7 6 6 5 4 4 4 4 4 4 5 5 6 7 9 10 11 12 13 13 14 15 15 15 15 15 15 15 15 16 17 18 19 21 22
6 5 4 3 5 6 5 7 7 6 9 11 12 11 10 9 9 10 9 8 7 5 7 9 7 6 9 11 12 11 8 6 6 7 9 10 10 9 10 10 10 9 10 10 10 10 10 9 8 7 6 6 5 4 4 3 3 3 3 4 5 5 6 7 9 10 11 12 13 13 14 14 14 14 14 15 15 15 15 15 16 17 18 20 22 23
7 7 6 3 5 7 5 6 7 6 9 10 11 11 11 10 10 11 10 10 7 4 7 9 7 6 7 10 12 11 8 6 6 8 9 10 11 11 11 11 11 11 11 11 10 10 9 8 7 6 5 4 4 3 3 2 3 3 4 5 6 7 7 8 10 11 12 13 13 14 14 14 14 14 14 14 14 14 15 15 16 18 20 22 23 24
9 8 8 5 8 10 5 5 7 6 8 9 10 12 12 11 11 11 11 11 7 5 9 9 6 5 7 10 12 10 7 6 6 7 9 10 11 12 12 12 12 12 11 10 10 9 8 7 6 5 4 3 2 2 2 2 3 4 5 6 7 7 8 9 10 11 12 13 13 14 14 14 14 14 14 14 14 14 14 15 16 18 21 23 24 25
12 9 8 8 10 11 7 5 7 7 8 9 10 12 12 12 11 10 10 11 7 7 11 10 6 6 8 10 11 10 9 9 8 9 10 11 12 12 12 12 12 11 10 10 9 8 7 7 6 5 3 2 1 1 2 3 4 5 5 6 7 7 8 9 10 11 12 13 14 14 14 15 15 15 14 14 14 14 14 15 16 19 22 24 25 26
12 9 9 9 8 10 9 6 6 7 9 10 11 12 11 11 11 10 10 10 7 8 11 10 6 8 9 10 11 10 10 9 9 9 10 11 11 12 11 11 11 10 9 9 8 7 6 6 5 3 1 0 2 2 3 4 5 5 6 7 7 8 8 9 10 11 12 13 14 14 15 15 15 15 15 15 15 15 15 16 19 22 24 26 27 29
14 12 11 9 6 7 9 7 6 8 10 11 12 12 11 11 11 10 11 10 9 10 11 8 7 8 9 10 10 9 9 8 8 9 9 10 11 11 11 10 9 9 9 8 7 6 6 4 3 2 1 2 3 3 4 5 5 6 6 7 8 8 8 9 10 11 12 14 14 14 15 15 16 16 16 17 17 17 18 19 21 24 26 27 29 30
18 15 11 8 6 7 9 7 8 11 11 11 12 12 10 11 12 11 12 11 10 11 10 7 7 8 9 11 10 10 9 8 8 9 9 10 10 10 9 9 9 8 8 8 7 6 5 3 2 1 2 3 3 4 4 4 5 6 7 7 8 8 9 10 11 12 14 14 15 15 15 16 17 17 18 18 19 19 20 22 23 25 26 28 30 31
21 16 12 10 8 7 7 8 10 13 13 11 12 11 10 12 13 12 12 12 11 10 9 7 7 8 9 11 11 11 10 9 9 9 9 9 10 9 9 9 9 8 8 7 6 5 4 3 2 1 2 3 4 4 4 4 5 6 7 7 8 9 10 11 12 13 14 16 16 16 16 16 17 18 19 19 20 20 21 22 24 25 27 28 30 32
20 16 15 13 9 5 7 10 12 13 12 12 12 12 12 14 13 11 11 12 11 9 8 8 8 8 10 10 11 11 11 10 10 10 10 10 10 10 9 9 9 8 7 6 5 4 4 2 1 1 2 3 4 4 4 4 5 6 7 8 9 10 11 12 13 14 15 16 17 17 17 17 17 18 19 19 20 21 22 23 24 26 27 29 31 33
21 19 18 16 12 7 10 13 13 11 11 12 12 13 14 14 13 11 10 10 10 8 8 9 9 9 9 9 9 10 10 11 11 11 11 10 9 9 9 9 8 7 5 4 4 4 3 2 1 1 2 3 5 5 5 5 6 7 8 9 11 12 13 14 14 15 16 16 17 17 18 18 19 19 20 20 21 21 22 23 25 27 29 31 32 34
25 22 20 19 16 13 14 17 15 11 11 12 14 15 15 15 14 13 10 10 10 9 10 10 9 9 9 10 9 9 9 10 11 12 11 10 9 8 8 8 7 5 4 4 3 3 3 2 1 2 3 4 5 5 6 7 8 9 9 11 12 13 15 15 16 16 17 17 18 18 18 19 19 20 20 21 21 21 23 24 26 28 30 32 34 35
27 24 21 20 18 18 19 17 13 9 11 13 16 16 16 16 16 14 12 11 10 10 11 10 8 9 11 10 9 8 8 10 11 10 10 9 8 7 7 7 5 5 4 3 3 3 3 2 1 2 3 5 6 6 6 7 9 10 11 12 13 14 15 16 17 17 18 19 19 19 19 20 20 20 20 21 21 22 23 25 27 29 31 34 35 36
28 26 24 21 21 21 18 13 10 10 12 14 16 17 18 19 17 15 13 12 11 11 10 10 9 9 10 8 7 7 8 10 10 9 9 9 8 7 7 6 5 5 4 3 3 3 2 1 1 3 3 4 5 6 6 8 9 10 12 13 14 14 15 16 16 17 19 19 19 20 20 21 21 21 21 21 22 23 24 26 29 31 33 35 36 37
29 29 27 25 23 21 16 14 14 15 15 16 17 18 20 22 20 18 16 13 12 11 11 11 11 9 8 6 6 7 8 9 9 9 9 9 8 7 8 7 6 4 3 2 2 2 2 1 2 3 4 4 5 6 7 8 9 11 12 13 13 14 15 15 16 17 18 19 19 20 20 20 21 21 21 21 22 23 25 27 30 33 34 36 36 37
32 32 30 26 24 21 19 19 18 17 17 17 16 17 21 23 19 18 18 16 13 12 13 13 14 12 8 6 7 8 9 8 8 10 11 10 9 9 9 8 6 4 3 3 3 2 2 2 2 3 4 5 6 6 7 8 10 11 12 13 14 15 15 16 16 17 18 18 19 19 19 20 20 21 21 22 23 25 26 28 31 33 34 35 36 37
35 34 32 27 25 23 23 22 20 19 17 14 14 17 20 19 18 19 19 19 16 15 15 16 16 14 11 10 8 8 9 9 10 12 13 11 11 10 9 8 7 5 5 5 4 3 2 3 3 3 3 5 6 7 7 9 10 11 12 13 14 15 16 16 16 17 18 19 19 20 20 21 22 22 23 24 25 25 25 28 32 34 34 34 35 38
38 36 34 30 27 25 26 24 21 19 16 12 14 17 19 21 24 24 23 21 19 18 17 17 18 15 14 14 10 8 9 10 11 14 14 13 12 10 9 8 8 7 6 6 5 4 3 3 3 3 4 5 6 7 8 9 10 12 13 14 15 15 16 17 18 18 19 20 21 21 22 22 23 23 24 25 25 24 25 30 33 33 33 33 36 39
39 38 36 34 30 28 28 26 23 21 17 15 17 19 21 23 24 24 24 22 21 20 18 17 18 16 16 16 12 9 9 9 11 13 14 13 12 10 8 9 9 8 7 7 7 5 4 4 3 4 5 5 6 6 7 9 10 12 13 15 16 17 18 19 20 20 21 22 22 22 23 23 24 24 24 25 24 24 27 32 33 32 32 34 37 40
41 39 38 37 34 31 31 28 25 24 20 15 19 23 23 23 22 22 24 22 20 20 19 17 17 17 17 16 14 11 10 8 9 12 13 12 11 10 9 10 10 9 8 9 7 6 5 4 4 5 5 6 6 7 7 9 10 12 14 16 17 19 20 20 21 21 22 23 23 23 24 25 25 25 25 25 25 26 30 31 30 31 33 36 39 41
41 41 40 39 37 33 32 31 29 28 21 14 18 24 24 23 23 23 24 21 19 19 17 15 15 16 16 15 14 13 11 8 8 11 13 13 11 10 10 10 10 10 9 9 7 6 6 5 5 6 6 6 6 7 8 9 11 13 15 17 18 19 20 21 21 22 23 23 24 24 25 25 26 26 26 26 26 28 29 28 28 31 34 38 40 41
40 41 41 40 37 34 33 33 31 31 26 17 15 22 25 24 24 25 23 21 21 18 14 14 17 17 15 14 14 13 12 10 10 11 12 13 13 11 10 10 10 10 10 9 8 7 7 7 7 8 8 7 6 7 8 9 12 14 16 18 19 20 20 21 22 22 23 23 24 24 24 24 25 25 25 25 25 25 25 25 28 32 35 38 40 41
41 41 40 37 35 35 35 34 33 32 30 22 16 19 24 25 25 25 23 23 25 21 15 17 20 18 15 15 16 17 16 14 13 12 12 13 13 12 12 12 12 12 11 10 10 9 8 8 8 8 8 8 7 8 8 10 12 15 17 18 19 20 20 21 21 22 22 23 23 23 23 23 23 23 23 23 22 21 22 25 29 33 36 39 40 41
42 42 40 35 33 34 36 35 34 32 30 26 20 19 24 26 26 27 27 26 26 23 21 21 21 18 18 19 19 18 18 17 14 12 13 14 13 13 14 14 14 14 13 12 11 10 9 8 8 9 9 9 9 9 9 10 13 15 17 18 19 20 20 21 21 21 22 22 22 22 22 22 23 23 22 21 20 20 23 27 31 34 37 40 41 42
40 42 41 36 32 34 36 36 35 33 31 28 24 22 24 27 28 29 29 28 26 24 23 25 23 21 20 20 18 17 18 18 16 13 12 13 13 13 14 14 15 16 14 13 11 10 9 9 9 9 10 10 10 10 9 10 12 15 17 18 19 20 21 21 21 21 22 22 22 22 22 22 22 21 20 19 19 22 25 29 33 36 39 40 41 42
39 41 42 40 36 33 34 35 36 35 33 31 28 26 26 29 30 31 30 28 27 26 25 27 26 23 22 21 18 17 19 19 17 13 11 12 13 14 15 15 15 16 15 14 12 10 9 9 10 10 11 11 12 11 11 11 13 15 17 18 19 20 21 21 21 22 22 22 22 22 22 22 22 21 20 19 21 23 27 31 34 37 39 40 41 42
41 38 40 42 41 36 33 33 35 37 36 35 32 29 30 29 28 29 30 28 27 27 26 27 26 24 23 23 21 20 19 18 17 15 13 12 12 13 14 15 15 15 16 15 12 11 10 10 11 11 12 13 13 12 12 12 14 16 17 18 20 20 21 21 21 22 22 22 22 22 22 22 22 21 21 21 22 25 29 33 35 37 38 39 41 43
44 40 38 39 41 41 37 33 32 36 38 38 34 32 33 31 27 26 28 29 28 27 27 27 26 24 22 22 22 22 20 18 17 16 13 12 13 12 12 12 13 14 15 15 14 13 12 12 12 13 14 14 13 13 13 13 14 16 17 18 19 20 20 21 22 22 22 23 23 24 24 24 24 23 23 23 24 27 31 34 36 37 38 40 42 45
44 43 41 38 39 41 41 35 31 34 39 39 38 38 37 33 29 26 27 28 29 28 28 28 28 25 22 22 23 22 20 19 17 15 13 12 12 13 14 13 13 13 14 15 16 16 15 14 13 13 14 15 15 14 14 14 15 16 17 18 19 20 20 21 22 23 23 23 25 26 26 27 26 25 25 26 27 29 33 35 36 37 39 42 44 47
41 42 42 41 39 40 42 40 34 33 37 40 41 42 41 36 33 29 27 27 29 29 30 30 29 27 25 23 23 21 19 19 18 16 15 14 13 14 16 15 14 13 14 16 17 18 17 16 14 13 13 15 16 16 15 15 15 16 17 18 19 20 21 22 23 23 24 25 27 28 29 29 29 28 28 28 29 31 34 36 37 38 41 43 46 49
39 40 41 42 41 40 41 44 41 35 35 39 43 45 43 40 37 34 29 28 29 29 29 30 30 28 27 24 22 21 21 21 20 18 18 16 14 16 17 16 15 15 15 17 18 18 18 18 17 15 14 15 17 17 16 16 16 17 18 19 20 21 21 23 24 24 25 27 28 29 31 31 31 30 30 30 30 32 35 36 37 39 42 45 48 50
34 37 40 41 42 41 41 44 45 41 37 38 42 46 46 43 40 37 34 32 30 29 29 30 30 28 27 25 22 21 22 22 20 19 19 18 16 17 17 16 16 16 17 16 16 17 18 17 17 17 17 17 18 18 18 17 18 18 19 20 21 22 23 24 24 25 26 27 28 30 31 32 32 31 31 30 31 33 35 36 37 40 43 46 49 52
30 34 38 39 41 42 42 43 45 46 42 40 41 43 45 45 43 40 38 36 33 31 30 31 31 29 27 25 21 20 22 22 20 20 21 19 18 18 18 18 18 18 18 17 17 17 17 17 17 18 19 19 19 19 19 18 19 19 20 21 22 23 24 25 25 25 26 27 28 30 32 32 33 32 31 30 31 32 34 36 38 41 45 48 51 53
30 32 35 37 39 41 43 43 43 46 46 44 43 43 43 44 45 43 41 39 36 33 32 32 32 31 29 26 23 21 22 22 21 21 21 21 21 21 20 20 20 20 20 20 19 19 19 19 19 20 21 21 21 20 19 19 20 20 20 22 23 25 26 26 25 26 26 27 28 30 32 32 32 32 31 31 31 32 34 36 38 42 45 49 52 54
29 30 33 36 38 39 42 44 43 44 47 47 45 44 43 44 46 45 42 41 38 35 34 34 33 33 31 29 26 24 23 23 22 22 22 23 23 23 21 19 20 22 22 22 22 21 22 23 22 21 22 22 22 20 19 20 20 20 21 23 24 26 26 26 26 26 27 27 29 31 32 33 33 32 32 32 32 33 33 35 38 42 46 49 53 54
28 29 31 33 36 38 41 43 43 44 46 48 48 46 42 41 45 46 44 42 40 38 35 35 35 34 33 31 29 27 25 24 23 22 23 23 23 22 20 19 21 23 23 25 26 26 27 26 24 23 23 23 22 20 19 20 21 21 22 23 25 27 27 27 27 27 27 28 30 31 33 34 34 34 34 34 34 33 34 36 39 42 46 50 53 54
28 30 30 30 32 35 38 41 44 44 44 47 51 49 42 39 42 45 43 42 42 39 36 36 37 36 35 33 32 30 28 26 26 25 24 24 24 22 20 20 22 23 24 27 28 30 33 32 28 26 24 23 22 21 20 21 22 22 23 24 26 27 27 27 27 28 28 29 31 34 36 36 36 36 36 35 34 33 34 36 39 43 46 50 52 53
29 30 29 27 29 32 33 37 43 44 43 44 49 52 48 43 42 43 42 42 43 40 38 38 39 39 38 36 34 33 31 29 29 28 27 27 27 26 25 25 27 27 27 29 30 32 35 36 33 30 27 24 22 21 20 21 23 24 24 25 27 27 27 27 28 28 29 31 34 37 39 39 38 37 36 35 34 33 34 36 39 43 46 49 51 52
30 30 29 28 27 29 31 34 41 45 45 43 45 51 54 52 48 45 43 43 44 42 39 40 41 41 40 38 36 34 32 31 31 31 31 30 30 30 30 30 31 30 31 32 32 32 34 35 35 35 32 26 21 20 20 21 23 24 25 26 27 27 27 27 28 29 31 33 36 39 40 40 38 37 36 35 33 33 34 36 39 43 46 48 50 51
32 32 32 30 26 26 30 35 40 44 45 43 42 46 52 55 53 50 46 44 45 45 42 41 42 44 42 40 37 35 32 32 32 32 33 33 32 32 32 33 33 33 33 33 33 33 34 35 35 36 35 28 21 19 21 21 22 24 26 27 27 26 26 27 29 30 32 34 37 39 40 39 38 36 35 34 33 33 34 36 40 42 44 46 48 50
35 34 34 34 30 26 27 32 39 42 44 43 41 42 47 52 53 53 51 47 46 46 46 43 42 44 44 42 39 37 34 33 33 33 33 34 34 33 34 34 33 33 33 34 36 36 36 38 37 35 36 31 23 19 20 22 23 25 26 27 27 26 27 28 30 31 33 35 38 39 39 38 37 37 36 35 34 33 34 37 40 42 43 45 47 49
37 36 37 37 35 32 28 30 36 41 42 42 42 41 43 49 52 54 53 51 48 47 47 46 44 43 43 43 41 40 39 37 35 35 35 35 35 35 35 34 33 34 35 37 39 38 37 37 34 30 31 30 25 21 21 22 24 26 27 27 27 27 27 29 31 32 33 35 37 38 38 38 37 37 37 35 33 33 35 37 39 40 42 45 47 49
39 39 40 40 39 38 37 37 40 42 41 41 42 42 42 46 50 53 54 53 52 51 49 47 46 44 43 43 42 42 42 41 39 37 37 36 36 36 35 34 35 36 37 38 39 38 36 34 30 25 25 27 27 25 22 23 25 27 27 27 27 27 29 30 31 32 33 35 36 38 39 39 38 38 37 34 32 33 36 38 38 39 42 46 47 48
41 42 42 42 41 42 43 45 45 44 40 40 42 44 44 43 45 49 53 52 52 53 53 51 50 48 46 45 44 43 43 43 42 40 38 38 38 37 36 36 36 37 38 38 37 36 33 30 28 27 28 31 33 32 27 24 26 27 27 27 27 28 30 30 31 32 33 34 36 38 41 43 41 37 34 31 30 33 36 38 38 39 42 46 48 49
Wind_Direction
253 284 270 260 257 255 264 272 248 227 234 246 245 235 211 179 183 176 175 185 192 203 210 217 224 224 229 245 256 238 227 230 237 258 266 213 136 132 134 138 141 143 143 138 133 128 119 114 112 105 104 101 95 94 93 92 91 90 88 84 80 76 74 70 60 49 43 38 30 19 8 3 2 1 356 347 342 343 345 347 347 346 343 340 338 337
248 283 278 276 279 279 271 263 259 245 238 243 243 238 228 202 193 189 187 195 206 218 223 228 228 222 225 248 273 254 192 129 142 237 253 168 130 125 124 127 131 130 126 122 116 109 103 99 94 90 93 96 94 90 86 83 83 83 82 77 73 70 69 65 55 44 34 25 17 11 3 359 358 352 345 341 341 344 346 347 347 345 342 339 337 337
217 261 281 283 284 284 275 261 262 253 235 232 233 240 240 226 223 217 201 201 226 241 243 244 246 244 247 258 270 277 88 95 90 128 187 153 132 122 120 123 127 124 120 115 109 102 99 93 91 92 96 95 90 86 83 82 80 80 79 76 70 66 61 57 48 34 22 10 2 359 357 356 352 346 342 342 344 347 348 348 346 343 340 338 337 336
206 225 295 306 288 271 272 265 255 241 227 219 219 231 239 235 236 229 214 215 238 259 265 256 252 254 257 261 262 276 298 107 105 121 159 147 129 122 120 123 125 124 119 112 106 101 98 96 99 103 102 98 93 89 87 85 83 81 80 76 68 58 49 42 33 22 10 1 356 353 353 352 348 345 344 345 347 348 349 347 344 341 338 337 336 335
194 210 311 324 292 251 249 249 244 236 231 223 218 225 231 234 238 233 223 229 248 273 278 270 262 260 260 261 259 259 267 124 111 126 153 147 133 126 122 122 124 123 119 114 110 107 105 108 110 110 108 105 102 97 94 90 87 82 77 72 62 48 35 27 19 10 1 355 353 351 350 349 347 346 346 348 349 349 348 345 342 339 337 337 338 338
190 211 296 308 288 264 247 238 236 235 236 235 231 229 226 231 242 243 235 234 252 272 275 274 274 270 259 255 254 251 256 170 126 141 153 151 142 135 128 128 130 127 123 120 119 118 118 122 120 116 112 110 107 104 101 94 87 78 68 60 51 41 28 17 8 360 355 351 351 350 349 349 348 348 348 350 350 348 346 344 341 340 340 341 342 344
207 217 269 281 304 331 284 256 242 235 239 243 242 238 234 237 248 253 250 242 251 272 279 278 277 262 243 243 246 247 249 196 153 157 161 164 158 150 141 138 140 138 134 130 128 126 126 128 125 119 115 112 109 104 98 86 73 59 47 42 36 29 20 10 1 353 351 350 349 350 350 350 349 349 349 350 348 347 345 344 343 344 345 347 348 348
211 216 247 269 285 297 291 282 262 243 243 245 245 245 243 242 245 252 255 247 248 272 288 281 267 234 228 237 242 243 244 207 171 170 169 173 171 162 151 148 148 147 144 140 136 132 129 130 127 122 118 113 108 98 87 72 57 44 32 25 15 9 4 360 354 349 349 349 350 350 351 351 350 349 349 347 346 346 347 347 348 349 351 351 350 349
210 215 225 276 282 271 281 290 284 263 251 247 248 247 243 243 242 247 252 251 253 275 287 273 253 225 224 234 238 238 234 207 178 173 173 174 172 167 157 150 149 148 147 143 139 136 135 134 131 127 120 112 104 92 79 60 40 26 12 0 349 346 350 354 354 352 352 352 352 352 352 352 350 349 347 346 345 347 349 351 352 353 353 351 349 348
216 218 224 253 266 260 274 293 296 288 268 259 255 249 244 242 239 241 246 250 255 268 270 263 251 236 225 226 233 234 230 208 178 170 172 172 169 164 157 150 147 148 148 146 142 142 141 138 132 126 120 111 103 89 71 42 12 358 349 342 336 338 347 355 357 356 355 354 354 353 352 351 349 347 346 345 346 348 350 351 353 354 352 350 349 347
223 218 227 237 248 253 263 287 296 296 275 263 256 252 250 245 240 241 243 244 245 240 251 259 254 233 212 214 225 228 225 208 180 172 170 170 166 161 158 154 151 153 154 152 148 148 147 141 134 129 122 112 100 76 42 5 347 342 341 337 334 337 346 354 356 356 356 355 354 353 351 349 347 345 344 343 345 347 348 349 350 349 348 348 348 347
231 228 237 237 244 253 256 277 295 293 275 261 252 251 251 249 246 243 240 242 238 231 249 259 242 205 196 207 216 215 213 201 181 173 170 169 166 163 165 163 159 161 161 157 153 154 156 150 144 141 134 122 79 16 349 338 332 329 330 329 328 333 342 350 353 355 355 355 354 352 349 347 344 342 341 341 342 343 343 343 342 342 344 345 345 344
224 225 238 240 245 253 252 267 294 289 273 262 256 255 249 242 240 238 236 238 232 230 247 250 216 191 193 204 208 207 209 203 184 174 170 169 169 169 174 174 169 170 168 161 159 166 171 163 154 148 143 272 308 311 316 321 320 319 319 319 322 327 335 343 347 349 351 352 351 350 347 344 342 340 339 338 337 338 337 337 337 338 340 341 341 341
209 211 229 242 254 258 254 268 288 273 262 259 259 258 248 233 229 230 231 230 224 229 239 232 200 192 197 198 197 196 200 200 190 179 173 176 177 178 184 185 182 181 176 168 169 183 191 180 164 163 254 287 295 301 311 315 314 312 314 317 321 326 332 336 339 341 342 344 345 346 345 342 341 339 338 336 335 335 335 335 335 336 337 338 338 339
207 203 210 227 240 252 259 271 271 259 257 260 259 259 251 239 234 234 233 227 221 226 232 222 200 200 201 192 184 183 188 193 193 184 181 184 187 189 193 195 194 192 187 179 181 198 205 197 186 209 266 280 285 292 305 311 309 307 309 315 320 326 332 334 335 335 335 336 338 340 341 341 340 338 337 336 334 334 334 334 335 335 335 335 335 336
209 196 190 202 215 234 262 271 261 257 258 260 262 262 254 243 238 234 233 229 224 226 229 219 204 204 204 191 180 178 182 189 195 194 189 187 192 197 200 202 200 198 197 191 191 207 213 208 203 234 272 284 287 288 293 298 300 305 310 316 321 326 332 333 333 333 332 332 333 335 338 339 338 337 336 334 333 333 332 332 332 333 332 332 333 334
212 197 191 196 197 224 267 264 253 251 253 258 265 262 252 247 241 235 237 234 228 228 226 213 204 205 206 197 185 181 182 186 194 202 200 190 189 195 204 209 206 202 201 195 195 207 209 197 193 234 269 285 292 291 294 298 302 310 318 323 326 331 336 335 334 333 332 333 332 333 335 336 336 337 336 335 333 332 332 332 332 332 331 331 332 332
213 197 192 194 191 214 253 253 250 251 252 258 263 256 251 252 249 244 244 236 225 221 212 202 202 207 210 205 193 187 184 186 194 203 207 202 192 191 205 216 213 201 193 189 194 204 201 187 193 262 295 298 299 303 310 316 318 322 326 329 332 336 340 339 336 335 334 333 333 331 332 334 336 338 338 337 336 334 333 333 333 333 332 332 332 332
219 202 195 198 197 208 230 237 242 251 257 259 258 253 250 251 252 250 244 233 223 211 197 192 197 206 213 210 197 190 189 193 201 205 208 209 198 189 200 210 206 191 183 187 202 219 222 215 239 293 314 310 310 316 322 328 331 331 333 334 335 338 341 340 337 336 335 334 332 331 330 332 334 337 339 339 337 336 335 336 336 334 332 331 332 333
224 213 205 207 210 216 225 231 235 252 269 264 256 253 250 248 250 249 240 229 220 207 189 181 187 203 214 211 198 191 196 205 209 205 204 206 198 189 194 198 194 188 188 193 206 227 231 222 253 289 309 313 317 323 328 335 337 336 338 337 338 340 339 337 336 335 335 334 332 331 331 331 333 335 338 339 337 336 337 337 336 334 332 332 332 333
224 220 215 215 219 221 222 220 219 240 265 267 262 258 249 243 241 237 229 221 213 204 187 174 179 203 219 219 207 200 205 212 210 200 198 202 197 189 187 189 195 194 193 200 213 234 248 247 265 287 310 319 320 326 335 341 341 340 342 341 340 340 337 335 337 337 335 333 332 332 332 332 332 333 334 335 335 334 335 336 334 333 333 333 333 333
225 224 220 221 222 221 221 222 222 232 246 260 267 259 247 244 238 220 208 208 208 200 190 178 175 193 217 223 215 209 208 211 207 198 198 201 197 190 186 188 193 187 187 217 243 263 285 296 288 298 317 327 327 333 338 340 343 346 348 345 342 340 337 337 338 336 334 333 333 333 332 330 328 328 329 330 331 331 331 332 333 333 333 333 333 332
227 226 222 223 223 222 227 232 233 236 241 250 260 255 249 247 233 205 195 201 201 194 193 184 175 182 197 201 205 206 202 206 209 205 204 202 199 196 192 191 188 185 202 234 257 270 278 285 293 307 322 332 334 337 339 339 344 349 347 345 344 342 340 340 338 335 334 334 334 333 332 331 328 328 327 327 328 328 329 331 332 333 333 333 333 331
229 227 225 226 225 224 228 230 232 240 245 250 257 255 247 231 203 189 194 199 194 191 195 187 176 179 183 176 185 200 198 199 207 208 204 203 205 203 198 195 194 203 224 239 247 259 272 273 282 301 321 338 341 341 342 343 346 348 346 345 345 344 342 339 337 337 336 335 334 334 333 332 331 330 328 326 326 327 328 331 332 333 333 333 331 328
232 229 227 228 227 227 230 230 231 239 245 251 253 243 224 202 187 187 195 197 193 194 196 184 174 178 179 167 167 190 197 196 204 209 206 204 209 208 204 208 210 215 233 241 241 262 296 289 280 292 313 335 345 346 345 345 348 348 348 348 347 345 344 343 342 341 338 335 334 333 332 330 328 328 326 325 325 326 328 332 333 333 333 332 329 327
233 231 229 230 230 231 233 233 234 240 244 248 240 221 202 195 192 192 194 196 196 198 196 182 174 178 178 167 164 183 197 199 206 212 209 207 211 211 215 228 228 225 235 237 236 261 294 294 282 291 312 330 341 345 345 345 348 349 349 349 348 348 348 346 344 342 339 337 335 332 329 326 325 325 326 326 325 325 328 332 333 332 331 329 328 328
233 233 232 233 235 235 234 232 235 238 240 239 224 208 198 196 195 197 202 201 198 200 196 181 175 179 177 169 166 175 188 201 212 215 210 206 207 210 218 232 234 230 232 231 233 257 278 282 283 294 309 323 332 340 344 346 348 349 349 349 348 349 347 345 343 341 339 337 334 331 328 326 324 322 322 323 322 323 328 330 331 330 329 329 330 331
233 233 234 236 237 236 232 230 233 234 231 224 211 205 202 199 198 204 209 208 206 204 195 184 181 178 174 170 168 173 182 195 214 216 208 201 202 207 215 224 227 224 225 226 231 249 266 277 287 296 303 313 325 333 340 346 347 348 349 348 347 346 344 342 341 340 339 336 333 331 329 327 325 322 320 319 320 323 327 328 329 330 331 332 333 332
234 234 236 237 236 235 232 228 230 232 229 226 217 210 207 205 204 206 208 211 215 207 190 191 192 182 175 177 178 182 185 190 205 213 207 201 201 205 212 217 218 218 222 229 235 243 260 276 288 295 299 304 316 325 333 342 346 347 348 346 344 343 341 340 340 339 337 334 331 329 328 327 326 325 323 322 322 323 324 326 328 331 333 333 332 331
235 235 236 236 234 233 232 230 229 231 232 232 229 219 215 212 209 208 209 213 215 207 196 201 199 190 188 191 190 192 191 189 198 208 210 208 205 207 211 213 213 215 220 228 234 241 255 270 283 292 297 302 309 317 328 339 344 345 344 342 340 340 338 337 337 336 334 331 329 328 327 326 326 326 325 324 322 322 323 326 330 332 332 331 330 330
234 234 234 234 233 233 234 233 230 230 234 237 234 227 222 218 214 212 214 216 214 210 208 208 203 198 199 200 198 199 197 192 193 202 213 215 210 209 213 214 213 213 218 227 235 242 252 263 276 287 295 302 306 311 323 336 341 341 339 338 337 336 335 334 333 332 331 329 328 328 328 327 325 324 322 320 319 320 324 328 330 329 329 329 330 332
232 233 233 232 231 232 235 235 231 228 232 238 239 233 226 222 219 217 217 219 217 215 217 217 210 202 203 205 206 208 206 196 189 195 210 217 214 212 216 218 218 217 221 231 238 243 254 265 277 288 296 300 303 309 320 332 337 336 335 334 333 333 333 332 331 330 329 328 328 328 328 326 323 319 316 314 316 321 326 328 328 327 328 330 331 332
232 230 232 232 231 231 235 236 231 227 229 233 235 235 228 223 222 221 221 223 222 221 226 228 222 213 208 206 205 209 208 197 186 186 200 214 221 224 228 231 231 232 237 241 242 247 259 272 280 288 295 299 302 308 318 327 331 332 331 330 330 331 331 330 329 329 328 328 327 327 327 324 319 315 311 310 315 322 326 326 326 326 328 330 332 332
238 230 228 232 232 230 232 235 230 226 226 226 228 233 233 232 230 225 222 223 223 222 227 231 229 223 218 213 208 207 207 199 190 190 194 203 214 224 234 239 240 244 250 251 250 254 264 275 282 287 293 298 303 309 317 325 328 328 328 327 327 328 327 326 327 327 327 327 325 325 325 323 319 313 309 309 315 322 324 324 325 327 330 331 332 331
246 237 229 229 230 229 230 230 226 223 222 222 222 228 234 239 240 231 223 221 219 217 220 223 222 220 220 221 219 213 208 205 202 200 201 204 210 215 221 229 238 248 256 261 263 263 266 272 279 286 291 296 303 309 314 320 323 322 321 321 322 323 322 323 325 327 327 326 325 325 324 323 320 315 310 310 315 319 321 323 326 330 332 332 331 331
252 245 237 232 228 228 227 226 223 222 222 220 220 224 229 234 236 231 225 224 222 217 216 216 216 215 214 220 225 222 217 217 214 211 214 217 218 215 210 215 231 247 257 265 268 268 269 274 280 284 287 293 299 304 308 313 314 312 312 313 316 318 318 321 325 328 329 328 328 328 327 325 323 318 314 312 313 315 320 325 329 331 332 331 331 331
257 250 244 238 232 228 227 225 224 223 223 221 221 224 227 230 229 226 225 228 227 223 219 218 219 219 217 220 226 225 224 228 225 219 219 223 222 216 211 215 228 242 252 260 265 270 276 282 287 286 285 288 292 296 300 302 302 302 305 309 313 315 317 321 326 329 331 331 331 331 330 328 326 321 316 313 311 314 321 326 329 331 331 331 332 332
261 255 248 243 237 232 229 226 224 221 219 219 222 225 227 228 227 224 223 227 229 227 224 222 221 223 223 224 224 221 223 229 227 221 222 224 221 217 215 219 229 239 248 256 262 270 278 284 287 287 286 286 287 290 294 296 297 300 305 311 314 315 318 323 327 330 332 333 333 332 332 331 328 322 317 313 312 315 321 325 328 330 331 331 332 332
264 259 253 246 239 235 231 227 225 224 220 218 220 224 226 227 225 223 223 226 228 228 228 225 224 225 225 225 224 222 221 223 223 225 228 227 224 224 224 226 233 240 245 250 256 265 273 279 282 283 285 285 284 288 292 295 297 301 307 312 315 316 320 323 327 330 332 333 332 332 332 331 328 323 317 313 312 315 320 325 328 330 331 331 332 332
262 259 255 249 242 237 232 228 226 226 225 221 218 219 222 222 222 222 223 224 226 229 230 229 229 228 225 222 222 223 222 221 223 230 235 234 231 231 229 229 235 240 244 248 254 259 265 269 272 277 282 283 284 287 292 295 298 301 307 311 314 316 320 323 325 327 329 331 331 331 330 329 326 322 316 313 312 315 320 325 329 330 331 332 332 332
260 259 256 252 247 240 236 232 227 225 225 224 219 216 218 220 221 222 222 222 224 228 231 232 232 231 226 221 220 223 224 224 227 233 237 237 236 237 236 237 240 242 245 249 254 256 259 262 265 271 277 280 282 284 288 292 295 300 305 309 312 315 319 321 323 324 326 328 328 328 328 327 324 320 315 311 311 314 320 325 328 329 331 332 332 332
259 258 256 254 251 246 240 237 233 226 223 224 222 219 218 219 221 223 222 222 223 227 230 231 232 233 230 225 222 224 224 225 229 235 238 237 236 238 242 246 250 251 251 255 260 261 260 260 262 266 271 275 277 280 284 288 292 297 303 307 310 313 316 318 320 322 324 325 326 326 325 325 324 321 315 311 311 313 319 324 327 328 330 331 331 331
258 256 255 254 254 251 246 243 240 232 224 222 222 220 216 215 218 223 225 224 225 227 229 230 231 233 233 230 227 226 227 227 230 236 240 242 242 241 245 252 258 259 261 266 271 271 269 265 262 262 265 271 275 278 283 287 291 295 300 304 307 310 312 314 317 320 322 323 324 324 324 324 323 321 317 314 312 314 318 323 325 327 328 329 330 330
258 256 255 254 253 252 249 246 244 238 229 223 222 221 217 215 217 221 224 226 226 227 228 229 230 231 233 233 231 231 232 233 236 238 241 246 249 249 252 259 264 267 270 273 274 274 274 271 263 258 260 265 270 275 281 285 287 291 296 299 303 306 308 312 316 319 320 321 322 323 323 323 322 319 317 316 314 314 316 320 323 326 327 327 329 329
256 255 254 252 249 249 249 246 244 241 235 229 225 223 221 221 220 222 224 226 228 227 226 227 228 228 231 234 235 235 236 237 238 239 241 245 250 254 257 261 265 268 271 271 272 277 279 272 261 255 256 258 261 269 276 279 282 286 291 296 299 302 306 311 315 317 317 318 320 321 323 322 320 317 317 317 315 314 314 318 322 324 325 326 328 328
255 252 250 248 246 247 248 245 242 241 239 235 230 226 224 223 222 223 225 226 228 228 225 223 225 227 230 232 235 237 238 238 239 241 242 246 250 254 258 261 264 266 267 268 274 283 285 276 263 255 254 252 253 261 269 273 278 283 288 292 296 299 304 310 313 314 314 315 318 321 322 321 319 317 317 316 315 313 313 316 319 322 324 326 328 327
255 249 246 244 241 242 247 246 242 241 240 239 236 233 229 225 222 222 223 225 228 228 226 224 225 228 230 231 232 235 238 240 242 245 246 249 251 254 257 260 262 265 266 270 278 285 287 284 274 261 252 247 246 254 264 271 277 282 285 289 293 298 304 308 310 311 310 312 317 321 322 321 319 318 317 315 314 312 312 314 317 320 323 326 327 326
255 249 244 240 234 230 238 245 243 240 240 239 237 236 234 230 225 222 223 225 227 229 228 227 226 227 229 230 231 234 237 240 244 247 251 254 256 258 260 261 264 267 271 276 281 283 287 291 284 265 252 247 245 251 264 273 279 281 283 287 292 297 302 306 307 307 308 312 317 320 320 320 321 320 318 315 313 312 311 312 316 319 323 326 326 326
254 248 242 238 232 224 224 234 238 239 239 238 236 234 234 233 230 225 223 224 226 228 229 229 227 227 228 230 232 234 236 239 242 246 250 254 257 260 262 264 268 273 275 277 279 280 286 292 287 268 255 251 247 247 259 272 278 281 282 286 292 297 300 302 304 306 310 314 316 316 317 318 319 321 320 316 312 310 309 310 314 319 323 325 326 327
252 247 241 237 233 226 223 228 235 238 238 238 236 232 229 230 232 231 228 226 227 228 228 229 229 228 228 230 233 236 238 239 241 243 247 251 254 257 259 262 267 272 273 274 276 278 283 288 286 274 263 256 249 246 255 271 280 282 282 286 292 296 298 300 303 307 310 313 313 313 314 314 315 318 319 316 312 310 310 310 313 318 321 324 326 328
248 246 242 238 234 228 226 230 236 239 238 237 236 233 227 224 227 232 232 230 229 229 230 230 230 230 230 232 234 237 239 240 240 241 244 248 251 254 256 258 263 268 269 270 272 274 278 282 282 278 270 260 253 251 259 276 285 284 283 287 292 294 296 299 302 306 309 311 313 313 312 311 311 312 314 313 311 311 313 314 315 317 320 324 326 328
Height
5776 5777 5777 5776 5776 5776 5776 5776 5776 5776 5776 5777 5777 5777 5777 5777 5777 5778 5778 5779 5779 5780 5781 5781 5782 5783 5783 5782 5781 5779 5779 5778 5777 5777 5777 5777 5777 5778 5778 5778 5779 5779 5779 5780 5780 5781 5781 5781 5782 5782 5782 5782 5782 5782 5782 5782 5782 5782 5782 5782 5782 5782 5782 5781 5781 5780 5780 5780 5779 5779 5778 5777 5776 5775 5774 5774 5773 5772 5771 5769 5768 5767 5765 5764 5763 5761
5775 5776 5776 5776 5776 5776 5776 5775 5775 5775 5776 5776 5777 5777 5777 5777 5777 5778 5778 5779 5780 5780 5781 5781 5782 5783 5782 5781 5780 5779 5778 5777 5777 5777 5777 5777 5777 5778 5778 5778 5779 5779 5780 5780 5780 5780 5781 5781 5782 5782 5782 5782 5782 5783 5783 5783 5783 5783 5783 5782 5782 5782 5782 5782 5781 5781 5780 5780 5779 5779 5778 5777 5776 5775 5775 5774 5773 5771 5770 5768 5767 5766 5765 5764 5762 5760
5775 5776 5775 5775 5775 5775 5775 5775 5775 5775 5775 5776 5776 5776 5777 5777 5777 5778 5779 5780 5780 5781 5781 5781 5782 5782 5782 5781 5780 5779 5778 5777 5776 5776 5777 5777 5777 5777 5778 5778 5779 5780 5780 5780 5780 5780 5781 5781 5782 5782 5783 5783 5783 5783 5783 5783 5783 5783 5783 5783 5783 5782 5782 5782 5782 5781 5781 5780 5779 5779 5778 5777 5776 5775 5775 5774 5772 5771 5769 5768 5767 5766 5764 5763 5761 5760
5774 5775 5775 5775 5775 5775 5775 5775 5775 5775 5775 5775 5775 5776 5777 5777 5777 5778 5779 5780 5780 5781 5781 5781 5781 5781 5780 5780 5779 5779 5778 5777 5776 5776 5777 5777 5777 5777 5778 5779 5779 5780 5780 5780 5780 5781 5781 5782 5782 5783 5783 5783 5783 5783 5784 5784 5784 5784 5784 5784 5783 5783 5783 5782 5782 5781 5781 5780 5779 5778 5778 5777 5776 5776 5774 5773 5772 5770 5769 5768 5766 5765 5764 5763 5761 5759
5773 5774 5775 5774 5773 5774 5774 5774 5774 5775 5774 5774 5775 5775 5776 5776 5777 5778 5778 5779 5779 5779 5780 5780 5780 5780 5779 5779 5779 5778 5778 5777 5776 5776 5777 5777 5777 5778 5778 5779 5780 5780 5780 5781 5781 5781 5782 5783 5784 5784 5784 5784 5784 5784 5784 5785 5785 5785 5785 5784 5784 5783 5783 5782 5782 5781 5780 5780 5779 5778 5777 5777 5776 5775 5774 5772 5771 5769 5768 5767 5766 5765 5763 5762 5760 5759
5773 5773 5774 5773 5773 5773 5774 5774 5774 5774 5774 5774 5774 5775 5775 5776 5777 5777 5778 5778 5778 5778 5778 5779 5780 5779 5779 5778 5778 5778 5778 5777 5776 5777 5777 5778 5778 5778 5779 5779 5780 5781 5781 5782 5782 5782 5783 5784 5785 5785 5785 5785 5785 5785 5785 5785 5785 5785 5785 5784 5784 5783 5783 5782 5781 5781 5780 5779 5778 5778 5777 5776 5775 5774 5773 5771 5770 5769 5768 5767 5766 5764 5763 5761 5760 5758
5772 5772 5773 5773 5772 5772 5773 5773 5773 5773 5774 5774 5774 5774 5774 5775 5776 5777 5777 5777 5777 5777 5778 5779 5779 5779 5778 5778 5778 5778 5778 5777 5777 5777 5778 5779 5779 5779 5779 5780 5781 5782 5782 5783 5783 5783 5784 5785 5785 5786 5786 5786 5786 5786 5786 5786 5786 5785 5785 5784 5784 5783 5782 5782 5781 5780 5780 5779 5778 5777 5776 5775 5774 5773 5772 5770 5769 5769 5767 5766 5765 5764 5763 5761 5759 5757
5770 5771 5771 5772 5772 5772 5772 5772 5773 5773 5773 5773 5773 5774 5774 5775 5775 5776 5777 5777 5776 5777 5777 5778 5778 5778 5778 5778 5778 5778 5778 5778 5777 5778 5778 5779 5780 5780 5780 5781 5782 5783 5783 5784 5784 5785 5785 5785 5786 5786 5786 5786 5786 5786 5786 5786 5786 5786 5785 5784 5784 5783 5782 5781 5781 5780 5779 5779 5778 5777 5776 5775 5774 5772 5771 5770 5769 5768 5767 5766 5765 5764 5762 5761 5759 5757
5769 5770 5770 5771 5772 5772 5772 5772 5772 5772 5773 5773 5773 5774 5774 5774 5775 5775 5776 5776 5776 5777 5777 5777 5778 5778 5778 5778 5779 5779 5778 5778 5777 5778 5779 5779 5780 5781 5781 5782 5782 5783 5784 5785 5785 5785 5786 5786 5786 5786 5786 5786 5786 5786 5786 5786 5786 5785 5785 5784 5784 5783 5782 5781 5780 5780 5779 5779 5778 5777 5776 5775 5773 5772 5771 5770 5769 5768 5767 5766 5765 5763 5762 5760 5758 5756
5768 5769 5769 5770 5770 5770 5771 5771 5771 5772 5772 5772 5773 5773 5773 5773 5774 5774 5775 5775 5775 5776 5776 5777 5778 5778 5778 5778 5779 5779 5778 5778 5778 5778 5779 5780 5781 5781 5782 5783 5783 5784 5785 5785 5786 5786 5786 5786 5786 5787 5786 5786 5786 5786 5786 5786 5786 5785 5785 5784 5784 5783 5782 5781 5780 5779 5779 5778 5777 5776 5775 5774 5773 5772 5771 5770 5769 5768 5766 5765 5764 5763 5761 5759 5757 5755
5767 5768 5768 5769 5769 5769 5770 5770 5771 5771 5771 5771 5772 5772 5773 5773 5773 5773 5774 5774 5775 5776 5775 5776 5777 5778 5778 5778 5779 5779 5779 5778 5779 5779 5780 5781 5781 5782 5783 5784 5784 5785 5786 5786 5786 5786 5787 5787 5786 5786 5786 5786 5786 5786 5786 5786 5785 5785 5785 5784 5784 5783 5782 5781 5780 5779 5778 5778 5777 5776 5775 5774 5773 5772 5771 5770 5769 5768 5767 5765 5764 5762 5760 5758 5757 5755
5766 5767 5767 5768 5768 5768 5769 5769 5770 5770 5770 5770 5771 5771 5771 5772 5772 5773 5773 5773 5774 5775 5775 5776 5777 5777 5778 5778 5779 5779 5779 5779 5779 5779 5780 5781 5782 5783 5784 5785 5785 5785 5786 5786 5786 5787 5787 5787 5786 5786 5786 5786 5786 5786 5786 5785 5785 5785 5785 5784 5783 5782 5781 5780 5779 5779 5778 5777 5776 5775 5775 5774 5773 5772 5771 5770 5768 5767 5766 5765 5763 5762 5760 5758 5756 5754
5765 5765 5766 5766 5767 5768 5768 5769 5769 5769 5769 5769 5770 5770 5770 5770 5771 5772 5772 5773 5774 5774 5774 5775 5776 5777 5778 5778 5779 5779 5779 5779 5780 5780 5781 5782 5783 5784 5785 5785 5786 5786 5786 5786 5786 5787 5787 5786 5786 5786 5786 5786 5786 5786 5786 5785 5785 5785 5784 5784 5783 5782 5781 5780 5779 5778 5778 5777 5776 5775 5774 5773 5772 5771 5770 5769 5768 5767 5765 5764 5762 5760 5758 5756 5754 5752
5762 5763 5764 5765 5766 5767 5767 5767 5768 5768 5768 5768 5769 5769 5769 5769 5770 5771 5771 5771 5772 5773 5773 5774 5776 5776 5777 5778 5778 5779 5779 5780 5780 5781 5781 5782 5783 5784 5785 5786 5786 5786 5786 5786 5786 5786 5787 5786 5786 5786 5786 5786 5786 5786 5785 5785 5785 5784 5784 5783 5782 5781 5780 5779 5778 5778 5777 5776 5776 5775 5774 5773 5771 5770 5769 5768 5767 5766 5764 5762 5761 5759 5757 5754 5752 5750
5759 5760 5762 5764 5765 5766 5766 5767 5767 5766 5767 5767 5768 5768 5768 5769 5769 5770 5770 5770 5771 5772 5773 5774 5775 5776 5777 5778 5778 5778 5779 5780 5781 5781 5782 5783 5784 5785 5786 5786 5786 5786 5786 5786 5786 5786 5786 5786 5785 5785 5785 5785 5786 5785 5785 5785 5784 5784 5783 5782 5782 5781 5779 5778 5777 5777 5776 5776 5775 5774 5773 5772 5771 5769 5768 5767 5766 5764 5763 5761 5759 5757 5755 5753 5750 5748
5757 5759 5760 5762 5763 5764 5765 5766 5766 5765 5766 5766 5767 5767 5768 5767 5768 5769 5769 5770 5770 5771 5773 5774 5775 5776 5776 5777 5777 5778 5779 5780 5781 5782 5782 5783 5784 5785 5786 5786 5786 5786 5786 5785 5785 5786 5786 5786 5785 5785 5785 5785 5785 5785 5784 5784 5784 5783 5782 5782 5781 5780 5778 5777 5777 5776 5776 5775 5774 5773 5772 5771 5770 5768 5767 5766 5765 5764 5762 5761 5758 5756 5754 5752 5750 5747
5757 5758 5758 5759 5761 5762 5764 5764 5764 5764 5765 5765 5766 5766 5766 5766 5767 5768 5768 5769 5770 5771 5772 5774 5775 5775 5776 5777 5777 5778 5779 5780 5781 5782 5782 5783 5784 5785 5786 5786 5786 5786 5786 5785 5785 5786 5786 5785 5785 5785 5785 5785 5785 5784 5784 5783 5783 5782 5781 5781 5780 5779 5778 5777 5776 5775 5775 5774 5774 5773 5771 5770 5769 5767 5766 5765 5764 5763 5762 5760 5758 5755 5753 5751 5749 5746
5755 5756 5756 5757 5758 5760 5761 5762 5762 5763 5763 5764 5764 5765 5765 5766 5767 5767 5768 5768 5769 5770 5771 5773 5774 5775 5776 5776 5777 5778 5779 5780 5781 5782 5782 5783 5784 5785 5786 5786 5786 5786 5786 5785 5785 5785 5785 5785 5785 5784 5784 5784 5784 5784 5783 5783 5782 5781 5781 5780 5779 5778 5777 5776 5775 5775 5774 5773 5773 5772 5771 5769 5768 5767 5765 5764 5763 5762 5761 5759 5756 5754 5751 5749 5747 5745
5753 5754 5755 5755 5756 5757 5758 5759 5760 5761 5762 5763 5763 5763 5764 5765 5766 5767 5767 5767 5768 5769 5770 5772 5774 5775 5775 5775 5776 5778 5779 5780 5781 5782 5782 5783 5784 5785 5785 5786 5786 5786 5785 5785 5785 5785 5785 5784 5784 5784 5784 5784 5784 5783 5783 5782 5781 5781 5780 5779 5778 5777 5776 5776 5775 5774 5773 5772 5772 5771 5770 5768 5767 5766 5764 5763 5762 5761 5759 5757 5755 5752 5750 5748 5746 5743
5750 5752 5753 5754 5754 5755 5755 5757 5759 5760 5761 5761 5761 5761 5763 5763 5764 5765 5766 5767 5768 5768 5770 5771 5773 5774 5774 5775 5776 5777 5779 5780 5781 5781 5782 5783 5783 5784 5785 5785 5785 5785 5785 5785 5785 5785 5784 5784 5784 5783 5783 5784 5783 5783 5782 5782 5781 5780 5779 5778 5777 5777 5776 5775 5774 5773 5772 5771 5771 5770 5769 5767 5766 5765 5763 5762 5761 5759 5758 5756 5753 5751 5749 5746 5744 5741
5748 5750 5751 5752 5752 5753 5755 5757 5758 5759 5759 5759 5759 5760 5761 5762 5763 5764 5766 5767 5767 5768 5770 5771 5773 5773 5774 5775 5776 5777 5778 5779 5780 5781 5781 5782 5783 5783 5784 5785 5785 5785 5784 5784 5784 5784 5784 5783 5783 5783 5783 5783 5783 5782 5782 5781 5780 5779 5778 5778 5777 5776 5775 5774 5773 5772 5771 5770 5770 5769 5767 5766 5765 5763 5762 5761 5760 5758 5756 5754 5752 5750 5747 5744 5741 5738
5746 5746 5748 5749 5749 5752 5754 5756 5756 5756 5757 5757 5757 5758 5759 5759 5760 5762 5764 5766 5767 5767 5769 5771 5772 5773 5774 5775 5776 5777 5778 5779 5780 5781 5781 5782 5782 5783 5783 5784 5784 5784 5784 5784 5784 5784 5784 5783 5783 5783 5783 5783 5783 5782 5781 5781 5780 5779 5778 5777 5776 5775 5774 5773 5772 5771 5770 5769 5768 5767 5766 5765 5764 5763 5761 5760 5758 5757 5755 5753 5751 5748 5745 5742 5739 5736
5742 5743 5745 5746 5747 5750 5752 5753 5753 5754 5754 5755 5756 5756 5757 5757 5758 5761 5762 5764 5765 5766 5768 5770 5771 5772 5773 5774 5776 5776 5777 5778 5779 5780 5781 5782 5782 5782 5782 5783 5783 5784 5784 5784 5784 5784 5784 5783 5783 5783 5783 5783 5782 5781 5780 5780 5779 5778 5777 5776 5775 5774 5773 5772 5771 5770 5769 5768 5767 5766 5765 5764 5763 5761 5760 5758 5757 5755 5753 5751 5749 5746 5743 5740 5737 5734
5739 5740 5742 5743 5745 5747 5749 5750 5751 5752 5752 5754 5754 5755 5755 5756 5757 5759 5760 5761 5763 5764 5766 5768 5770 5771 5772 5774 5775 5776 5777 5778 5779 5780 5781 5781 5781 5781 5782 5782 5783 5783 5783 5784 5784 5784 5784 5783 5783 5783 5783 5782 5781 5780 5779 5779 5778 5777 5776 5775 5774 5773 5772 5771 5771 5769 5768 5767 5766 5765 5763 5762 5760 5759 5758 5756 5755 5753 5751 5749 5747 5744 5741 5738 5735 5731
5735 5737 5739 5741 5742 5745 5746 5748 5750 5750 5751 5752 5753 5753 5754 5754 5754 5756 5758 5759 5761 5762 5764 5767 5769 5771 5772 5773 5774 5776 5777 5778 5779 5780 5780 5780 5780 5781 5781 5782 5782 5782 5783 5783 5783 5783 5783 5783 5783 5782 5782 5781 5780 5779 5779 5778 5777 5776 5775 5774 5774 5773 5771 5770 5769 5768 5767 5765 5764 5763 5762 5760 5759 5757 5756 5754 5753 5751 5749 5747 5745 5742 5739 5736 5733 5729
5732 5734 5736 5737 5740 5742 5744 5746 5748 5749 5749 5750 5750 5751 5753 5753 5754 5755 5756 5758 5760 5761 5763 5766 5769 5770 5771 5772 5773 5775 5776 5777 5778 5779 5780 5779 5780 5780 5781 5782 5782 5782 5782 5782 5783 5783 5782 5782 5782 5782 5781 5780 5779 5779 5778 5777 5776 5775 5774 5773 5772 5771 5770 5769 5768 5767 5766 5764 5763 5762 5760 5759 5757 5756 5754 5752 5751 5749 5747 5745 5743 5740 5737 5734 5731 5727
5728 5730 5732 5734 5737 5740 5742 5744 5745 5746 5747 5748 5749 5750 5751 5751 5753 5755 5756 5757 5759 5760 5762 5765 5768 5770 5771 5772 5773 5774 5776 5776 5777 5779 5779 5779 5779 5780 5780 5781 5781 5781 5781 5781 5782 5782 5781 5781 5781 5781 5780 5779 5778 5778 5777 5776 5775 5774 5773 5772 5771 5770 5769 5768 5767 5766 5765 5763 5762 5760 5758 5757 5755 5754 5752 5750 5749 5747 5745 5743 5741 5738 5735 5732 5729 5725
5725 5727 5729 5731 5734 5737 5739 5741 5742 5743 5745 5747 5747 5748 5750 5750 5751 5752 5755 5758 5759 5760 5762 5764 5766 5769 5771 5771 5772 5774 5775 5776 5777 5778 5778 5778 5778 5779 5779 5780 5780 5780 5780 5781 5781 5781 5781 5780 5780 5779 5779 5778 5777 5776 5775 5775 5774 5773 5772 5771 5770 5769 5768 5767 5766 5765 5763 5762 5760 5758 5757 5755 5753 5752 5750 5749 5747 5745 5744 5741 5739 5736 5734 5730 5727 5723
5721 5723 5726 5728 5732 5734 5736 5739 5740 5740 5743 5745 5745 5746 5748 5749 5749 5750 5753 5757 5758 5759 5762 5763 5763 5766 5768 5769 5770 5772 5773 5775 5776 5777 5777 5777 5778 5778 5779 5779 5779 5779 5779 5779 5780 5780 5779 5779 5779 5778 5777 5776 5776 5775 5774 5773 5773 5772 5771 5771 5770 5768 5767 5766 5765 5764 5762 5761 5759 5757 5756 5754 5752 5751 5749 5747 5746 5744 5742 5740 5737 5735 5732 5728 5725 5722
5718 5720 5723 5726 5729 5731 5733 5735 5737 5738 5740 5743 5744 5744 5745 5747 5748 5749 5751 5752 5754 5757 5759 5759 5760 5763 5765 5766 5767 5769 5770 5772 5774 5776 5776 5777 5777 5777 5778 5778 5778 5778 5778 5778 5778 5779 5778 5778 5777 5777 5776 5775 5774 5774 5773 5772 5772 5771 5771 5770 5769 5768 5767 5766 5764 5763 5761 5760 5758 5757 5755 5753 5751 5750 5748 5746 5744 5742 5740 5738 5735 5733 5730 5727 5723 5719
5714 5717 5720 5723 5727 5728 5729 5731 5734 5736 5738 5740 5741 5742 5743 5744 5746 5746 5747 5748 5751 5754 5756 5757 5758 5761 5762 5763 5765 5767 5769 5771 5772 5774 5775 5776 5776 5776 5777 5777 5777 5777 5777 5777 5777 5777 5777 5777 5776 5775 5775 5774 5773 5773 5772 5771 5771 5771 5770 5769 5768 5767 5766 5765 5764 5762 5761 5759 5757 5756 5754 5752 5750 5748 5746 5744 5742 5740 5738 5736 5733 5731 5728 5725 5720 5716
5711 5714 5717 5721 5723 5725 5725 5728 5731 5733 5735 5737 5738 5738 5740 5742 5743 5744 5745 5747 5750 5753 5754 5755 5757 5758 5760 5761 5764 5766 5768 5769 5770 5772 5774 5775 5775 5776 5776 5776 5776 5776 5776 5776 5776 5776 5776 5775 5774 5774 5773 5773 5772 5772 5771 5771 5771 5770 5769 5768 5767 5766 5766 5764 5763 5761 5760 5758 5756 5755 5753 5750 5748 5746 5744 5742 5740 5738 5736 5734 5731 5729 5725 5721 5717 5712
5708 5711 5713 5716 5720 5721 5722 5724 5727 5730 5732 5733 5734 5735 5736 5739 5740 5742 5743 5746 5748 5751 5753 5754 5755 5757 5758 5760 5762 5764 5766 5767 5768 5769 5771 5772 5774 5774 5775 5775 5775 5775 5775 5775 5775 5774 5774 5774 5773 5772 5772 5771 5771 5771 5771 5770 5770 5769 5768 5767 5766 5765 5764 5763 5762 5760 5759 5757 5755 5753 5751 5749 5746 5744 5742 5740 5738 5736 5734 5732 5729 5726 5723 5718 5714 5710
5704 5707 5709 5712 5715 5718 5720 5721 5723 5726 5727 5729 5731 5732 5733 5735 5738 5739 5741 5743 5746 5749 5751 5752 5754 5756 5757 5758 5760 5761 5763 5765 5766 5766 5768 5769 5771 5772 5772 5773 5773 5773 5773 5773 5773 5773 5772 5772 5772 5771 5770 5770 5770 5770 5770 5769 5769 5768 5767 5766 5765 5764 5763 5762 5760 5759 5758 5756 5754 5752 5749 5747 5744 5742 5740 5738 5736 5734 5732 5730 5727 5724 5719 5715 5712 5708
5699 5702 5705 5708 5711 5714 5716 5717 5718 5720 5721 5724 5727 5729 5730 5732 5735 5737 5738 5741 5743 5745 5748 5750 5752 5754 5756 5757 5758 5759 5761 5763 5763 5765 5766 5767 5768 5769 5770 5771 5771 5771 5771 5771 5771 5771 5771 5771 5770 5770 5769 5769 5769 5769 5769 5768 5767 5767 5766 5765 5764 5763 5762 5761 5759 5758 5757 5755 5752 5750 5747 5744 5742 5740 5738 5736 5734 5732 5730 5727 5724 5720 5717 5713 5709 5705
5694 5698 5701 5703 5706 5709 5712 5713 5715 5715 5717 5721 5724 5725 5726 5729 5732 5733 5735 5737 5740 5742 5744 5747 5749 5751 5753 5755 5756 5758 5760 5761 5762 5763 5765 5766 5767 5767 5767 5768 5769 5769 5769 5769 5769 5769 5769 5769 5769 5769 5768 5768 5767 5767 5767 5767 5766 5765 5764 5763 5762 5761 5760 5759 5758 5757 5755 5753 5750 5747 5744 5742 5740 5738 5736 5734 5732 5730 5728 5725 5721 5718 5714 5711 5707 5703
5689 5693 5696 5698 5701 5704 5707 5709 5712 5713 5714 5717 5719 5720 5723 5725 5728 5730 5732 5734 5736 5739 5741 5744 5746 5749 5751 5752 5754 5756 5758 5759 5760 5761 5762 5763 5764 5765 5765 5765 5765 5766 5767 5767 5767 5766 5767 5767 5767 5767 5767 5766 5766 5766 5766 5765 5764 5763 5762 5762 5760 5759 5758 5757 5756 5755 5753 5751 5748 5745 5742 5740 5737 5735 5734 5732 5730 5728 5725 5723 5719 5716 5713 5709 5704 5700
5685 5688 5691 5694 5696 5699 5702 5705 5707 5709 5710 5712 5714 5715 5718 5721 5723 5726 5728 5730 5733 5735 5738 5741 5743 5746 5748 5750 5752 5753 5755 5757 5758 5759 5759 5760 5762 5762 5762 5763 5763 5764 5764 5764 5764 5764 5764 5765 5764 5764 5765 5764 5764 5764 5764 5763 5762 5761 5760 5759 5758 5757 5756 5755 5754 5753 5751 5748 5745 5742 5740 5738 5735 5733 5732 5730 5728 5726 5723 5721 5718 5715 5711 5707 5702 5698
5682 5684 5687 5690 5692 5695 5697 5699 5702 5705 5706 5708 5710 5712 5714 5716 5719 5722 5725 5727 5729 5732 5735 5737 5740 5743 5745 5747 5749 5750 5752 5754 5756 5756 5756 5758 5759 5760 5760 5761 5761 5761 5761 5762 5762 5762 5762 5762 5762 5762 5762 5762 5762 5762 5762 5761 5760 5759 5758 5757 5756 5755 5754 5753 5752 5750 5748 5745 5743 5740 5738 5735 5733 5731 5729 5728 5726 5724 5721 5719 5716 5712 5709 5704 5700 5695
5679 5680 5682 5685 5688 5690 5692 5694 5697 5700 5703 5705 5707 5708 5710 5712 5715 5717 5720 5723 5726 5728 5731 5734 5736 5739 5742 5744 5746 5748 5749 5752 5754 5754 5754 5755 5756 5757 5758 5758 5759 5759 5759 5759 5759 5759 5759 5759 5759 5759 5759 5759 5759 5759 5759 5759 5758 5757 5756 5755 5754 5752 5751 5750 5749 5748 5746 5743 5741 5738 5736 5733 5731 5729 5727 5725 5723 5721 5719 5717 5713 5710 5706 5702 5697 5693
5675 5676 5677 5680 5682 5685 5687 5689 5692 5695 5698 5701 5703 5704 5706 5708 5710 5712 5714 5718 5722 5725 5727 5730 5733 5735 5738 5741 5743 5745 5747 5749 5750 5751 5752 5753 5754 5755 5756 5756 5756 5757 5756 5756 5756 5757 5757 5757 5757 5756 5756 5756 5756 5756 5756 5756 5755 5754 5753 5752 5751 5750 5749 5748 5747 5745 5743 5741 5738 5736 5734 5732 5729 5727 5725 5723 5721 5719 5717 5714 5711 5707 5703 5699 5695 5690
5671 5672 5673 5675 5677 5679 5682 5684 5686 5689 5692 5696 5698 5700 5701 5703 5705 5707 5710 5714 5718 5721 5724 5727 5729 5731 5734 5737 5739 5742 5744 5746 5747 5748 5748 5749 5750 5752 5753 5754 5754 5754 5754 5754 5754 5754 5754 5753 5753 5754 5753 5753 5753 5753 5753 5753 5752 5751 5751 5750 5749 5748 5747 5746 5745 5743 5741 5739 5737 5734 5732 5730 5728 5725 5722 5720 5718 5716 5714 5711 5708 5705 5701 5697 5692 5688
5666 5667 5669 5671 5673 5675 5677 5679 5680 5683 5687 5691 5693 5695 5696 5698 5700 5704 5707 5711 5714 5717 5720 5723 5725 5727 5730 5733 5736 5738 5740 5742 5744 5744 5745 5746 5747 5748 5750 5751 5751 5752 5752 5752 5752 5752 5751 5751 5751 5751 5750 5750 5750 5750 5750 5750 5750 5749 5748 5747 5747 5746 5745 5744 5742 5741 5739 5737 5735 5732 5730 5728 5725 5722 5719 5717 5715 5713 5711 5709 5706 5703 5699 5695 5690 5685
5662 5663 5665 5668 5669 5670 5672 5673 5674 5678 5683 5685 5687 5690 5692 5694 5697 5700 5704 5707 5710 5713 5716 5719 5721 5724 5726 5729 5732 5734 5736 5738 5740 5741 5742 5743 5744 5745 5747 5748 5748 5749 5749 5749 5749 5749 5748 5748 5749 5748 5747 5747 5747 5747 5747 5748 5747 5747 5746 5745 5744 5744 5743 5741 5740 5739 5737 5734 5732 5730 5727 5725 5722 5719 5716 5714 5712 5710 5708 5706 5703 5700 5697 5693 5688 5683
5658 5659 5661 5663 5664 5665 5665 5666 5670 5675 5678 5680 5681 5685 5688 5691 5694 5697 5700 5703 5706 5710 5713 5715 5717 5720 5723 5725 5728 5730 5732 5735 5736 5738 5739 5740 5741 5742 5744 5745 5745 5746 5746 5745 5745 5745 5745 5745 5745 5745 5744 5743 5743 5743 5744 5744 5744 5744 5744 5743 5742 5742 5740 5739 5737 5736 5734 5732 5729 5727 5725 5722 5719 5716 5713 5711 5709 5707 5706 5704 5701 5698 5694 5690 5686 5681
5654 5655 5656 5657 5659 5659 5660 5662 5666 5670 5672 5675 5677 5679 5682 5685 5689 5692 5696 5699 5702 5705 5709 5712 5714 5716 5719 5722 5724 5726 5728 5731 5732 5734 5736 5737 5738 5739 5740 5741 5742 5742 5742 5741 5742 5742 5741 5740 5740 5740 5740 5741 5740 5740 5740 5741 5741 5741 5741 5741 5740 5739 5738 5736 5735 5733 5731 5729 5726 5724 5722 5718 5715 5713 5711 5709 5707 5705 5703 5701 5699 5696 5692 5688 5684 5679
5649 5650 5651 5652 5654 5656 5656 5657 5661 5664 5667 5670 5673 5674 5676 5680 5683 5686 5690 5694 5697 5701 5705 5708 5711 5713 5715 5718 5720 5722 5725 5727 5729 5730 5732 5734 5735 5736 5737 5737 5738 5738 5738 5738 5738 5738 5737 5735 5735 5736 5737 5738 5738 5737 5737 5737 5738 5738 5738 5738 5737 5736 5735 5733 5732 5730 5728 5726 5724 5721 5718 5715 5712 5710 5708 5706 5704 5702 5700 5698 5696 5693 5690 5686 5682 5677
5643 5645 5647 5647 5649 5652 5652 5652 5655 5659 5661 5665 5668 5670 5672 5674 5677 5681 5685 5689 5692 5695 5699 5704 5707 5709 5711 5714 5716 5719 5721 5723 5725 5726 5728 5729 5731 5732 5733 5734 5734 5734 5735 5735 5735 5734 5733 5732 5731 5731 5733 5735 5736 5735 5734 5734 5734 5734 5735 5735 5734 5733 5732 5730 5729 5727 5725 5723 5721 5718 5715 5712 5710 5708 5705 5703 5701 5699 5697 5696 5693 5691 5688 5684 5680 5675
5637 5639 5640 5641 5644 5647 5648 5648 5649 5653 5656 5659 5662 5665 5667 5669 5672 5676 5681 5684 5687 5690 5693 5698 5702 5705 5708 5710 5712 5715 5717 5719 5721 5723 5724 5725 5727 5728 5729 5730 5731 5731 5732 5732 5731 5730 5731 5730 5728 5728 5730 5732 5733 5733 5732 5731 5731 5731 5731 5731 5731 5730 5729 5727 5725 5723 5721 5720 5718 5715 5712 5710 5708 5706 5703 5701 5698 5696 5694 5693 5691 5688 5685 5681 5677 5672
5631 5631 5633 5635 5639 5642 5642 5642 5643 5647 5651 5654 5657 5661 5664 5665 5668 5672 5676 5680 5683 5685 5688 5692 5697 5700 5703 5706 5708 5710 5713 5715 5718 5719 5721 5722 5723 5725 5726 5727 5728 5728 5728 5728 5728 5728 5729 5728 5727 5727 5729 5730 5730 5729 5728 5728 5728 5727 5728 5728 5727 5727 5725 5723 5722 5720 5719 5717 5714 5711 5709 5707 5705 5703 5701 5698 5696 5693 5691 5689 5688 5686 5682 5678 5674 5669
5623 5624 5626 5629 5633 5636 5637 5637 5638 5642 5646 5649 5652 5656 5660 5662 5664 5667 5671 5674 5678 5680 5683 5687 5691 5695 5698 5701 5703 5706 5708 5711 5713 5715 5717 5718 5719 5721 5722 5723 5724 5724 5725 5725 5725 5726 5726 5726 5726 5726 5727 5727 5726 5725 5724 5724 5725 5724 5724 5724 5724 5723 5721 5720 5718 5717 5716 5713 5711 5708 5705 5703 5702 5700 5698 5695 5693 5691 5688 5685 5683 5682 5679 5674 5670 5665